Norfolk, NE

6:01 AM CDT on July 22, 2017 (GMT -0500)
Stefan Memorial

Weather History for KOFK - March, 2013

Change the Weather History Date:

Monday, March 18, 2013

  Actual Average Record
Temperature  
Mean Temperature 31 °F 38 °F  
Max Temperature 37 °F 50 °F 84 °F (2012)
Min Temperature 24 °F 27 °F -12 °F (1923)
Degree Days  
Heating Degree Days 34 27  
Month to date heating degree days 586 544  
Since 1 July heating degree days 5507 5637  
Cooling Degree Days 0 0  
Month to date cooling degree days 0 0  
Year to date cooling degree days 0 0  
Moisture  
Dew Point 18 °F    
Average Humidity 64    
Maximum Humidity 92    
Minimum Humidity 35    
Precipitation  
Precipitation T in 0.06 in 1.00 in (1979)
Month to date precipitation 0.89 0.87  
Year to date precipitation 1.79 2.22  
Snow  
Snow 0.00 in 0.20 in - ()
Month to date snowfall 2.8 3.1  
Since 1 July snowfall 17.7 25.9  
Snow Depth 0.00 in    
Sea Level Pressure  
Sea Level Pressure 29.87 in    
Wind  
Wind Speed 19 mph (WNW)    
Max Wind Speed 37 mph    
Max Gust Speed 47 mph    
Visibility 10 miles    
Events      
T = Trace of Precipitation, MM = Missing Value Source: NWS Daily Summary

Daily Weather History Graph

Daily Weather History Graph

Search for Another Location

Airport or City:

Trip Planner

Search our weather history database for the weather conditions in past years. The results will help you decide how hot, cold, wet, or windy it might be!

Date:

Astronomy

Mar. 18, 2013 Rise Set
Actual Time 7:35 AM CDT 7:40 PM CDT
Civil Twilight 7:08 AM CDT 8:07 PM CDT
Nautical Twilight 6:35 AM CDT 8:40 PM CDT
Astronomical Twilight 6:02 AM CDT 9:13 PM CDT
Moon 11:31 AM CDT (3/18) 1:45 AM CDT (3/18)
Length of Visible Light 12h 59m
Length of Day
12h 04m
Waxing Crescent, 41% of the Moon is Illuminated
Mar 18
Waxing Crescent
Mar 19
First Quarter
Mar 27
Full
Apr 2
Last Quarter
Apr 10
New

Hourly Weather History & Observations

Time (CDT) Temp. Windchill Dew Point Humidity Pressure Visibility Wind Dir Wind Speed Gust Speed Precip Events Conditions
12:56 AM 37.0 °F 27.7 °F 34.0 °F 89% 29.74 in 9.0 mi South 16.1 mph 23.0 mph N/A   Overcast
1:05 AM 37.4 °F 27.8 °F 33.8 °F 87% 29.71 in 9.0 mi SSW 17.3 mph 28.8 mph N/A   Overcast
1:19 AM 37.4 °F 28.5 °F 35.6 °F 93% 29.70 in 9.0 mi SSW 15.0 mph - N/A   Overcast
1:56 AM 37.0 °F 28.1 °F 35.1 °F 93% 29.75 in 8.0 mi SSW 15.0 mph - N/A   Overcast
2:17 AM 37.4 °F 27.8 °F 35.6 °F 93% 29.72 in 8.0 mi SW 17.3 mph 24.2 mph N/A   Overcast
2:56 AM 37.0 °F 27.0 °F 30.9 °F 79% 29.76 in 10.0 mi WNW 18.4 mph 25.3 mph 0.00 in   Overcast
3:05 AM 37.4 °F 28.5 °F 28.4 °F 70% 29.73 in 10.0 mi WNW 15.0 mph - N/A   Overcast
3:35 AM 35.6 °F 27.5 °F 30.2 °F 81% 29.73 in 10.0 mi WNW 11.5 mph - N/A   Overcast
3:49 AM 37.4 °F 26.9 °F 28.4 °F 70% 29.73 in 10.0 mi WNW 20.7 mph 28.8 mph N/A   Overcast
3:56 AM 36.0 °F 26.0 °F 28.0 °F 73% 29.77 in 10.0 mi WNW 17.3 mph 28.8 mph N/A   Overcast
4:56 AM 32.0 °F 22.1 °F 24.1 °F 73% 29.78 in 10.0 mi NW 13.8 mph - N/A   Partly Cloudy
5:44 AM 32.0 °F 20.5 °F 24.8 °F 75% 29.76 in 10.0 mi NW 18.4 mph 25.3 mph N/A   Mostly Cloudy
5:56 AM 30.0 °F 16.0 °F 19.9 °F 66% 29.81 in 10.0 mi WNW 25.3 mph 36.8 mph N/A   Mostly Cloudy
6:56 AM 28.0 °F 13.9 °F 14.0 °F 56% 29.83 in 10.0 mi NW 23.0 mph 29.9 mph N/A   Clear
7:56 AM 27.0 °F 13.2 °F 12.0 °F 53% 29.84 in 10.0 mi NW 20.7 mph 35.7 mph N/A   Clear
8:56 AM 27.0 °F 12.8 °F 12.0 °F 53% 29.86 in 10.0 mi WNW 21.9 mph 33.4 mph N/A   Clear
9:56 AM 27.0 °F 11.0 °F 10.9 °F 51% 29.88 in 10.0 mi NW 28.8 mph 36.8 mph N/A   Clear
10:56 AM 27.0 °F 10.0 °F 9.0 °F 47% 29.91 in 10.0 mi NW 33.4 mph 41.4 mph N/A   Clear
11:56 AM 28.9 °F 13.7 °F 9.0 °F 43% 29.94 in 10.0 mi NW 28.8 mph 39.1 mph N/A   Clear
12:56 PM 30.0 °F 15.2 °F 9.0 °F 41% 29.94 in 10.0 mi WNW 28.8 mph 35.7 mph N/A   Partly Cloudy
1:56 PM 30.9 °F 17.5 °F 10.0 °F 42% 29.95 in 10.0 mi NW 24.2 mph 41.4 mph N/A   Clear
2:56 PM 33.1 °F 19.3 °F 9.0 °F 37% 29.94 in 10.0 mi WNW 28.8 mph 44.9 mph N/A   Clear
3:56 PM 34.0 °F 20.8 °F 9.0 °F 35% 29.95 in 10.0 mi NW 27.6 mph 36.8 mph N/A   Clear
4:56 PM 35.1 °F 22.0 °F 10.0 °F 35% 29.96 in 10.0 mi NW 28.8 mph 38.0 mph N/A   Clear
5:56 PM 35.1 °F 23.5 °F 10.0 °F 35% 29.98 in 10.0 mi NW 21.9 mph 34.5 mph N/A   Clear
6:56 PM 34.0 °F 23.8 °F 9.0 °F 35% 30.00 in 10.0 mi WNW 16.1 mph 28.8 mph N/A   Clear
7:56 PM 30.9 °F 21.7 °F 9.0 °F 40% 30.03 in 10.0 mi WNW 11.5 mph - N/A   Clear
8:56 PM 27.0 °F 19.5 °F 10.9 °F 51% 30.05 in 10.0 mi WNW 6.9 mph - N/A   Clear
9:56 PM 26.1 °F 21.9 °F 12.0 °F 55% 30.05 in 10.0 mi NNW 3.5 mph - N/A   Clear
10:56 PM 25.0 °F 19.3 °F 12.0 °F 58% 30.09 in 10.0 mi West 4.6 mph - N/A   Clear
11:56 PM 25.0 °F 18.1 °F 12.0 °F 58% 30.08 in 10.0 mi WNW 5.8 mph - N/A   Clear